RYR36GA LEMD-LEMH

Flight info

Callsign RYR36GA
Flight time 1h 2m
Altitude 30000
Route NANDO T257 FENXE/N0413F320 T257 LASPO M871 PTC
Aircraft B738/M-SDE3FGIJ1LRWY/SB1

Departure

Time 2026-05-03 23:54
Airport Adolfo Suárez Madrid–Barajas Airport (LEMD)

Arrival

Time 2026-05-04 00:56
Airport Menorca Airport (LEMH)
Time Latitude Longitude Altitude Speed Heading
2026-05-03 23:27 40.46024 -3.56999 1971 ft 0 kts 141°
2026-05-03 23:43 40.46017 -3.56993 1969 ft 2 kts 151°
2026-05-03 23:44 40.46003 -3.57003 1972 ft 3 kts 244°
2026-05-03 23:44 40.46015 -3.57022 1975 ft 3 kts 334°
2026-05-03 23:44 40.46044 -3.57035 1971 ft 5 kts 356°
2026-05-03 23:44 40.46084 -3.57010 1972 ft 8 kts 43°
2026-05-03 23:45 40.46131 -3.56951 1974 ft 11 kts 47°
2026-05-03 23:45 40.46191 -3.56871 1972 ft 14 kts 36°
2026-05-03 23:45 40.46274 -3.56788 1973 ft 16 kts 51°
2026-05-03 23:45 40.46297 -3.56637 1970 ft 13 kts 73°
2026-05-03 23:46 40.46341 -3.56596 1972 ft 8 kts
2026-05-03 23:46 40.46411 -3.56588 1973 ft 12 kts
2026-05-03 23:46 40.46500 -3.56580 1971 ft 14 kts
2026-05-03 23:46 40.46610 -3.56573 1972 ft 17 kts
2026-05-03 23:47 40.46737 -3.56564 1975 ft 19 kts
2026-05-03 23:47 40.46879 -3.56552 1974 ft 22 kts
2026-05-03 23:47 40.47032 -3.56554 1978 ft 22 kts 344°
2026-05-03 23:47 40.47165 -3.56645 1980 ft 22 kts 323°
2026-05-03 23:48 40.47284 -3.56764 1986 ft 21 kts 322°
2026-05-03 23:48 40.47398 -3.56881 1991 ft 21 kts 322°
2026-05-03 23:48 40.47510 -3.56994 1991 ft 20 kts 322°
2026-05-03 23:48 40.47616 -3.57102 1994 ft 19 kts 322°
2026-05-03 23:49 40.47721 -3.57208 1999 ft 19 kts 322°
2026-05-03 23:49 40.47822 -3.57311 2002 ft 18 kts 322°
2026-05-03 23:49 40.47923 -3.57413 2003 ft 20 kts 322°
2026-05-03 23:49 40.48048 -3.57541 1999 ft 25 kts 322°
2026-05-03 23:50 40.48198 -3.57694 1995 ft 29 kts 322°
2026-05-03 23:50 40.48374 -3.57867 1990 ft 33 kts 328°
2026-05-03 23:50 40.48562 -3.58022 2001 ft 28 kts 331°
2026-05-03 23:50 40.48747 -3.58047 2002 ft 26 kts 358°
2026-05-03 23:51 40.48923 -3.58051 2002 ft 24 kts 360°
2026-05-03 23:51 40.49086 -3.58053 2002 ft 23 kts 359°
2026-05-03 23:51 40.49195 -3.58056 2002 ft 0 kts
2026-05-03 23:51 40.49196 -3.58056 2002 ft 1 kts
2026-05-03 23:52 40.49216 -3.58048 2002 ft 6 kts 26°
2026-05-03 23:52 40.49242 -3.57972 1999 ft 14 kts 88°
2026-05-03 23:52 40.49244 -3.57807 1993 ft 22 kts 90°
2026-05-03 23:52 40.49253 -3.57601 1986 ft 22 kts 71°
2026-05-03 23:53 40.49358 -3.57464 1983 ft 22 kts 18°
2026-05-03 23:53 40.49506 -3.57454 1983 ft 21 kts 359°
2026-05-03 23:53 40.49727 -3.57456 1984 ft 60 kts 359°
2026-05-03 23:53 40.50397 -3.57460 1991 ft 130 kts 359°
2026-05-03 23:54 40.51472 -3.57463 2204 ft 167 kts
2026-05-03 23:54 40.52703 -3.57448 2723 ft 190 kts
2026-05-03 23:54 40.54092 -3.57396 3386 ft 205 kts
2026-05-03 23:54 40.55504 -3.57339 4294 ft 208 kts
2026-05-03 23:55 40.56967 -3.56783 4800 ft 226 kts 17°
2026-05-03 23:55 40.58498 -3.56165 5472 ft 233 kts 14°
2026-05-03 23:55 40.60054 -3.55580 6317 ft 236 kts 17°
2026-05-03 23:55 40.61427 -3.54412 7128 ft 242 kts 53°
2026-05-03 23:56 40.62061 -3.52306 7587 ft 259 kts 91°
2026-05-03 23:56 40.61646 -3.49939 7968 ft 277 kts 121°
2026-05-03 23:56 40.60594 -3.47784 8763 ft 282 kts 129°
2026-05-03 23:56 40.59423 -3.45707 9741 ft 283 kts 131°
2026-05-03 23:57 40.58221 -3.43620 10520 ft 293 kts 132°
2026-05-03 23:57 40.56960 -3.41425 10933 ft 313 kts 131°
2026-05-03 23:57 40.55631 -3.39081 11558 ft 325 kts 131°
2026-05-03 23:57 40.54272 -3.36651 12348 ft 331 kts 131°
2026-05-03 23:58 40.52906 -3.34188 13189 ft 336 kts 131°
2026-05-03 23:58 40.51516 -3.31674 13995 ft 342 kts 131°
2026-05-03 23:58 40.50110 -3.29127 14731 ft 346 kts 131°
2026-05-03 23:58 40.48701 -3.26574 15466 ft 351 kts 131°
2026-05-03 23:59 40.47258 -3.23959 16188 ft 356 kts 131°
2026-05-03 23:59 40.45784 -3.21290 16869 ft 363 kts 131°
2026-05-03 23:59 40.44283 -3.18575 17548 ft 370 kts 131°
2026-05-03 23:59 40.42768 -3.15839 18231 ft 375 kts 131°
2026-05-04 00:00 40.41220 -3.13047 18871 ft 379 kts 131°
2026-05-04 00:00 40.39536 -3.10398 19564 ft 375 kts 142°
2026-05-04 00:00 40.37582 -3.08146 20291 ft 373 kts 146°
2026-05-04 00:00 40.35619 -3.05965 20963 ft 375 kts 146°
2026-05-04 00:01 40.33623 -3.03735 21621 ft 378 kts 146°
2026-05-04 00:01 40.31617 -3.01476 22281 ft 381 kts 146°
2026-05-04 00:01 40.29595 -2.99174 22923 ft 386 kts 144°
2026-05-04 00:01 40.27786 -2.96504 23504 ft 400 kts 131°
2026-05-04 00:02 40.26379 -2.93299 24038 ft 411 kts 121°
2026-05-04 00:02 40.25204 -2.89915 24502 ft 415 kts 121°
2026-05-04 00:02 40.23988 -2.86450 24931 ft 421 kts 121°
2026-05-04 00:02 40.22744 -2.82947 25373 ft 425 kts 121°
2026-05-04 00:03 40.21479 -2.79410 25835 ft 428 kts 121°
2026-05-04 00:03 40.20219 -2.75912 26263 ft 432 kts 122°
2026-05-04 00:03 40.18928 -2.72339 26698 ft 436 kts 122°
2026-05-04 00:03 40.17620 -2.68730 27111 ft 440 kts 122°
2026-05-04 00:04 40.16298 -2.65085 27551 ft 444 kts 122°
2026-05-04 00:04 40.14969 -2.61424 27967 ft 447 kts 122°
2026-05-04 00:04 40.13645 -2.57783 28373 ft 451 kts 122°
2026-05-04 00:04 40.12291 -2.54064 28747 ft 455 kts 122°
2026-05-04 00:05 40.10926 -2.50318 29162 ft 457 kts 122°
2026-05-04 00:05 40.09557 -2.46560 29679 ft 457 kts 122°
2026-05-04 00:05 40.08193 -2.42820 30228 ft 456 kts 122°
2026-05-04 00:05 40.06826 -2.39080 30634 ft 456 kts 122°
2026-05-04 00:06 40.05456 -2.35339 31049 ft 456 kts 122°
2026-05-04 00:06 40.04084 -2.31599 31492 ft 456 kts 122°
2026-05-04 00:06 40.02727 -2.27902 31893 ft 456 kts 123°
2026-05-04 00:06 40.01354 -2.24166 32294 ft 456 kts 123°
2026-05-04 00:07 39.99977 -2.20425 32704 ft 456 kts 123°
2026-05-04 00:07 39.98596 -2.16707 33113 ft 455 kts 124°
2026-05-04 00:07 39.97122 -2.13045 33499 ft 454 kts 126°
2026-05-04 00:07 39.95592 -2.09444 33895 ft 453 kts 127°
2026-05-04 00:08 39.94055 -2.05898 34025 ft 458 kts 127°
2026-05-04 00:08 39.92479 -2.02268 34027 ft 460 kts 127°
2026-05-04 00:08 39.89371 -1.95021 34009 ft 453 kts 127°
2026-05-04 00:09 39.86321 -1.87864 34023 ft 456 kts 127°
2026-05-04 00:09 39.83201 -1.80574 34030 ft 471 kts 126°
2026-05-04 00:10 39.79961 -1.73001 34036 ft 484 kts 126°
2026-05-04 00:10 39.76660 -1.65292 34020 ft 494 kts 126°
2026-05-04 00:11 39.73306 -1.57471 34011 ft 495 kts 126°
2026-05-04 00:11 39.69932 -1.49646 34003 ft 495 kts 126°
2026-05-04 00:12 39.66581 -1.41892 34001 ft 493 kts 126°
2026-05-04 00:12 39.63217 -1.34126 33988 ft 492 kts 126°
2026-05-04 00:13 39.59882 -1.26443 33996 ft 490 kts 126°
2026-05-04 00:13 39.56535 -1.18751 34005 ft 488 kts 126°
2026-05-04 00:14 39.53244 -1.11043 33988 ft 492 kts 121°
2026-05-04 00:14 39.51324 -1.02425 34003 ft 505 kts 102°
2026-05-04 00:15 39.50348 -0.93439 34015 ft 506 kts 102°
2026-05-04 00:15 39.49331 -0.84451 34018 ft 507 kts 103°
2026-05-04 00:16 39.48250 -0.75405 34023 ft 506 kts 103°
2026-05-04 00:16 39.47150 -0.66421 34020 ft 508 kts 103°
2026-05-04 00:17 39.46029 -0.57341 34019 ft 510 kts 103°
2026-05-04 00:17 39.44908 -0.48288 34021 ft 511 kts 103°
2026-05-04 00:18 39.43774 -0.39174 34020 ft 513 kts 103°
2026-05-04 00:18 39.42639 -0.30106 34015 ft 513 kts 103°
2026-05-04 00:19 39.41484 -0.20946 34011 ft 514 kts 103°
2026-05-04 00:19 39.40331 -0.11852 34008 ft 514 kts 103°
2026-05-04 00:20 39.39360 -0.04252 34003 ft 515 kts 103°
2026-05-04 00:20 39.37996 0.06367 34007 ft 515 kts 103°
2026-05-04 00:21 39.37011 0.13987 34009 ft 515 kts 103°
2026-05-04 00:21 39.35824 0.23115 34012 ft 514 kts 104°
2026-05-04 00:22 39.34630 0.32245 34008 ft 514 kts 104°
2026-05-04 00:22 39.33453 0.41311 34011 ft 515 kts 101°
2026-05-04 00:23 39.33390 0.50620 34029 ft 520 kts 88°
2026-05-04 00:23 39.33912 0.59902 34014 ft 520 kts 88°
2026-05-04 00:24 39.34379 0.69256 34010 ft 520 kts 89°
2026-05-04 00:24 39.34786 0.78539 34011 ft 520 kts 89°
2026-05-04 00:25 39.35177 0.87881 34011 ft 520 kts 89°
2026-05-04 00:25 39.35565 0.97222 34008 ft 520 kts 89°
2026-05-04 00:26 39.35946 1.06510 34003 ft 520 kts 89°
2026-05-04 00:26 39.36321 1.15832 34005 ft 519 kts 89°
2026-05-04 00:27 39.36689 1.25163 34004 ft 519 kts 89°
2026-05-04 00:27 39.37048 1.34454 34004 ft 519 kts 89°
2026-05-04 00:28 39.37401 1.43776 34003 ft 519 kts 89°
2026-05-04 00:28 39.37741 1.53096 34008 ft 518 kts 89°
2026-05-04 00:29 39.38070 1.62363 34005 ft 518 kts 89°
2026-05-04 00:29 39.38395 1.71685 34008 ft 517 kts 89°
2026-05-04 00:30 39.38555 1.76358 33641 ft 521 kts 89°
2026-05-04 00:30 39.38711 1.80967 33243 ft 514 kts 89°
2026-05-04 00:30 39.38866 1.85557 32793 ft 507 kts 89°
2026-05-04 00:30 39.39018 1.90102 32288 ft 502 kts 89°
2026-05-04 00:31 39.39165 1.94610 31676 ft 501 kts 89°
2026-05-04 00:31 39.39310 1.99112 31036 ft 501 kts 90°
2026-05-04 00:31 39.39453 2.03613 30384 ft 500 kts 90°
2026-05-04 00:31 39.39593 2.08057 29695 ft 500 kts 90°
2026-05-04 00:32 39.39732 2.12534 28958 ft 498 kts 90°
2026-05-04 00:32 39.39870 2.17008 28227 ft 496 kts 90°
2026-05-04 00:32 39.40006 2.21461 27493 ft 494 kts 90°
2026-05-04 00:32 39.40139 2.25888 26782 ft 491 kts 90°
2026-05-04 00:33 39.40270 2.30295 26084 ft 488 kts 90°
2026-05-04 00:33 39.40525 2.39029 24742 ft 482 kts 90°
2026-05-04 00:33 39.40647 2.43302 24098 ft 479 kts 90°
2026-05-04 00:34 39.40769 2.47596 23445 ft 475 kts 90°
2026-05-04 00:34 39.40887 2.51855 22689 ft 471 kts 90°
2026-05-04 00:34 39.41004 2.56082 21953 ft 468 kts 90°
2026-05-04 00:34 39.41118 2.60279 21235 ft 464 kts 90°
2026-05-04 00:35 39.41227 2.64385 20551 ft 461 kts 90°
2026-05-04 00:35 39.41337 2.68520 19866 ft 458 kts 90°
2026-05-04 00:35 39.41444 2.72647 19201 ft 455 kts 90°
2026-05-04 00:35 39.41549 2.76723 18549 ft 453 kts 90°
2026-05-04 00:36 39.41653 2.80797 17812 ft 450 kts 90°
2026-05-04 00:36 39.41754 2.84837 17066 ft 448 kts 90°
2026-05-04 00:36 39.41852 2.88808 16340 ft 446 kts 90°
2026-05-04 00:36 39.41949 2.92806 15624 ft 443 kts 90°
2026-05-04 00:37 39.42045 2.96785 14915 ft 440 kts 90°
2026-05-04 00:37 39.42139 3.00735 14236 ft 438 kts 90°
2026-05-04 00:37 39.42231 3.04664 13524 ft 435 kts 90°
2026-05-04 00:37 39.42321 3.08571 12780 ft 432 kts 89°
2026-05-04 00:38 39.42409 3.12440 12088 ft 427 kts 89°
2026-05-04 00:38 39.42494 3.16214 11423 ft 422 kts 89°
2026-05-04 00:38 39.42577 3.19990 10768 ft 416 kts 89°
2026-05-04 00:38 39.42673 3.23671 10320 ft 399 kts 86°
2026-05-04 00:39 39.43296 3.27050 10142 ft 377 kts 65°
2026-05-04 00:39 39.44539 3.29875 10070 ft 355 kts 57°
2026-05-04 00:39 39.45811 3.32555 10018 ft 340 kts 58°
2026-05-04 00:39 39.47012 3.35113 10007 ft 325 kts 58°
2026-05-04 00:40 39.48156 3.37569 10008 ft 311 kts 58°
2026-05-04 00:40 39.49247 3.39919 9909 ft 301 kts 58°
2026-05-04 00:40 39.50320 3.42240 9629 ft 298 kts 58°
2026-05-04 00:40 39.51371 3.44519 9325 ft 297 kts 58°
2026-05-04 00:41 39.52426 3.46809 9020 ft 295 kts 59°
2026-05-04 00:41 39.53478 3.49098 8719 ft 294 kts 59°
2026-05-04 00:41 39.54520 3.51369 8414 ft 292 kts 59°
2026-05-04 00:41 39.55557 3.53628 8126 ft 291 kts 59°
2026-05-04 00:42 39.56590 3.55883 7885 ft 292 kts 59°
2026-05-04 00:42 39.57618 3.58127 7655 ft 295 kts 59°
2026-05-04 00:42 39.58668 3.60424 7411 ft 296 kts 59°
2026-05-04 00:42 39.59721 3.62727 7165 ft 295 kts 59°
2026-05-04 00:43 39.60769 3.65020 6924 ft 294 kts 59°
2026-05-04 00:43 39.61809 3.67300 6684 ft 293 kts 59°
2026-05-04 00:43 39.62828 3.69535 6446 ft 291 kts 59°
2026-05-04 00:43 39.63860 3.71798 6194 ft 289 kts 59°
2026-05-04 00:44 39.64883 3.74045 5931 ft 288 kts 59°
2026-05-04 00:44 39.65903 3.76286 5678 ft 286 kts 59°
2026-05-04 00:44 39.66902 3.78483 5441 ft 285 kts 60°
2026-05-04 00:44 39.67909 3.80699 5193 ft 284 kts 60°
2026-05-04 00:45 39.68915 3.82912 4952 ft 283 kts 60°
2026-05-04 00:45 39.69913 3.85113 4688 ft 282 kts 60°
2026-05-04 00:45 39.70994 3.87224 4425 ft 282 kts 46°
2026-05-04 00:45 39.72669 3.88486 4166 ft 279 kts 13°
2026-05-04 00:46 39.74545 3.88965 4057 ft 278 kts 10°
2026-05-04 00:46 39.76466 3.89488 4022 ft 282 kts 11°
2026-05-04 00:46 39.78384 3.90065 3998 ft 281 kts 12°
2026-05-04 00:46 39.80279 3.90666 3991 ft 280 kts 13°
2026-05-04 00:47 39.82162 3.91281 3987 ft 278 kts 13°
2026-05-04 00:47 39.84017 3.91898 3997 ft 279 kts 13°
2026-05-04 00:47 39.85900 3.92530 3990 ft 276 kts 13°
2026-05-04 00:47 39.87736 3.93148 3900 ft 268 kts 13°
2026-05-04 00:48 39.89523 3.93726 3744 ft 262 kts 12°
2026-05-04 00:48 39.91315 3.94185 3477 ft 262 kts 11°
2026-05-04 00:48 39.93066 3.94739 3202 ft 262 kts 15°
2026-05-04 00:48 39.94789 3.95512 3050 ft 261 kts 21°
2026-05-04 00:49 39.96466 3.96522 3001 ft 267 kts 27°
2026-05-04 00:49 39.98069 3.97739 3002 ft 266 kts 33°
2026-05-04 00:49 39.99570 3.99123 2989 ft 260 kts 38°
2026-05-04 00:49 40.00952 4.00636 2995 ft 260 kts 43°
2026-05-04 00:50 40.02221 4.02268 2978 ft 259 kts 48°
2026-05-04 00:50 40.03389 4.04037 2998 ft 254 kts 53°
2026-05-04 00:50 40.04262 4.06008 2978 ft 250 kts 79°
2026-05-04 00:50 40.04168 4.08176 2999 ft 235 kts 110°
2026-05-04 00:51 40.03690 4.10185 2985 ft 228 kts 108°
2026-05-04 00:51 40.03285 4.12170 2988 ft 223 kts 107°
2026-05-04 00:51 40.02896 4.14147 2813 ft 226 kts 108°
2026-05-04 00:51 40.02518 4.16090 2664 ft 218 kts 107°
2026-05-04 00:52 40.02153 4.17977 2486 ft 214 kts 107°
2026-05-04 00:52 40.01791 4.19857 2423 ft 213 kts 107°
2026-05-04 00:52 40.01429 4.21727 2395 ft 211 kts 107°
2026-05-04 00:52 40.00844 4.23440 2384 ft 205 kts 136°
2026-05-04 00:53 39.99617 4.24215 2403 ft 199 kts 179°
2026-05-04 00:53 39.98260 4.24122 2395 ft 190 kts 185°
2026-05-04 00:53 39.96958 4.24070 2241 ft 185 kts 185°
2026-05-04 00:53 39.95702 4.23837 2011 ft 179 kts 191°
2026-05-04 00:54 39.94524 4.23573 1779 ft 169 kts 191°
2026-05-04 00:54 39.93366 4.23330 1550 ft 167 kts 191°
2026-05-04 00:54 39.92232 4.23098 1343 ft 164 kts 192°
2026-05-04 00:54 39.91133 4.22869 1141 ft 154 kts 191°
2026-05-04 00:55 39.90124 4.22661 899 ft 141 kts 189°
2026-05-04 00:55 39.89204 4.22473 717 ft 130 kts 187°
2026-05-04 00:55 39.88325 4.22278 551 ft 127 kts 188°
2026-05-04 00:55 39.87431 4.22105 407 ft 132 kts 188°
2026-05-04 00:56 39.86533 4.21897 308 ft 122 kts 187°
2026-05-04 00:56 39.85784 4.21764 298 ft 93 kts 188°
2026-05-04 00:56 39.85345 4.21677 285 ft 50 kts 188°
2026-05-04 00:56 39.85167 4.21657 285 ft 15 kts 155°
2026-05-04 00:57 39.85131 4.21775 283 ft 15 kts 101°
2026-05-04 00:57 39.85136 4.21863 283 ft 7 kts 40°
2026-05-04 00:57 39.85187 4.21884 280 ft 8 kts 14°
2026-05-04 00:57 39.85239 4.21898 283 ft 8 kts 10°
2026-05-04 00:58 39.85291 4.21908 280 ft 7 kts
2026-05-04 00:58 39.85344 4.21914 281 ft 9 kts
2026-05-04 00:58 39.85419 4.21928 287 ft 14 kts
2026-05-04 00:58 39.85537 4.21954 285 ft 20 kts
2026-05-04 00:59 39.85684 4.21987 293 ft 23 kts
2026-05-04 00:59 39.85854 4.22020 295 ft 26 kts
2026-05-04 00:59 39.86047 4.22060 299 ft 30 kts
2026-05-04 00:59 39.86179 4.22108 297 ft 14 kts 55°
2026-05-04 01:00 39.86184 4.22237 288 ft 12 kts 77°
2026-05-04 01:00 39.86224 4.22273 287 ft 6 kts
2026-05-04 01:00 39.86268 4.22276 287 ft 6 kts
2026-05-04 01:00 39.86311 4.22283 287 ft 6 kts
2026-05-04 01:01 39.86356 4.22294 287 ft 7 kts
2026-05-04 01:01 39.86403 4.22304 287 ft 7 kts
2026-05-04 01:01 39.86452 4.22314 287 ft 7 kts 10°
2026-05-04 01:01 39.86462 4.22316 287 ft 2 kts
2026-05-04 01:02 39.86474 4.22336 290 ft 4 kts 85°
2026-05-04 01:02 39.86471 4.22381 286 ft 4 kts 98°
2026-05-04 01:02 39.86469 4.22395 285 ft 0 kts 98°
2026-05-04 01:02 39.86468 4.22399 285 ft 0 kts 98°